QPF
0.04 0.04 0.04 0.04 0.05 0.06 0.08 0.11 0.09 0.07 0.06 0.06 0.08 0.09 0.14 0.13 0.11 0.06 0.07 0.10 0.08 0.10 0.09 0.04 0.02 0.01 0.00 0.01 0.02 0.03 0.02 0.03 0.02 0.02 0.02 0.03 0.03 0.03 0.02 0.01 0.01 0.01 0.01
0.03 0.04 0.04 0.04 0.04 0.06 0.06 0.07 0.08 0.07 0.08 0.08 0.11 0.15 0.18 0.15 0.16 0.10 0.09 0.09 0.07 0.06 0.07 0.05 0.02 0.01 0.00 0.01 0.01 0.01 0.02 0.02 0.02 0.02 0.02 0.02 0.01 0.02 0.02 0.02 0.01 0.01 0.01
0.01 0.03 0.03 0.05 0.06 0.05 0.05 0.07 0.08 0.08 0.08 0.10 0.14 0.17 0.16 0.14 0.14 0.14 0.12 0.08 0.05 0.03 0.04 0.05 0.03 0.02 0.01 0.01 0.01 0.01 0.01 0.02 0.02 0.02 0.03 0.02 0.01 0.01 0.01 0.02 0.01 0.01 0.01
0.01 0.02 0.03 0.03 0.05 0.07 0.06 0.06 0.08 0.09 0.11 0.13 0.13 0.17 0.18 0.17 0.18 0.18 0.18 0.12 0.09 0.04 0.03 0.04 0.04 0.02 0.02 0.01 0.02 0.01 0.01 0.01 0.01 0.01 0.02 0.01 0.01 0.01 0.01 0.01 0.01 0.01 0.01
0.01 0.01 0.02 0.02 0.03 0.05 0.05 0.05 0.07 0.08 0.08 0.09 0.09 0.12 0.17 0.19 0.18 0.16 0.18 0.18 0.15 0.09 0.05 0.03 0.04 0.03 0.02 0.02 0.01 0.01 0.01 0.01 0.01 0.01 0.01 0.01 0.01 0.01 0.01 0.01 0.01 0.01 0.01
0.01 0.01 0.01 0.02 0.02 0.03 0.04 0.05 0.06 0.07 0.07 0.11 0.13 0.14 0.17 0.17 0.17 0.15 0.15 0.16 0.15 0.13 0.11 0.06 0.02 0.02 0.02 0.02 0.02 0.01 0.01 0.01 0.00 0.00 0.01 0.01 0.00 0.01 0.01 0.01 0.01 0.01 0.01
0.02 0.01 0.01 0.01 0.01 0.02 0.03 0.03 0.05 0.06 0.08 0.10 0.13 0.13 0.14 0.15 0.15 0.13 0.11 0.12 0.13 0.12 0.14 0.13 0.06 0.03 0.01 0.02 0.01 0.01 0.01 0.01 0.01 0.00 0.00 0.00 0.00 0.00 0.01 0.01 0.00 0.01 0.01
0.02 0.01 0.01 0.00 0.00 0.01 0.01 0.02 0.03 0.04 0.07 0.09 0.10 0.10 0.08 0.08 0.09 0.13 0.13 0.10 0.12 0.14 0.15 0.16 0.12 0.08 0.03 0.01 0.00 0.01 0.01 0.01 0.01 0.00 0.00 0.00 0.00 0.00 0.00 0.00 0.01 0.01 0.01
0.01 0.01 0.01 0.00 0.00 0.01 0.01 0.01 0.02 0.03 0.04 0.07 0.09 0.10 0.07 0.05 0.07 0.08 0.09 0.09 0.12 0.14 0.14 0.16 0.14 0.15 0.11 0.04 0.01 0.01 0.01 0.01 0.01 0.01 0.01 0.01 0.00 0.00 0.00 0.01 0.01 0.01 0.02
0.00 0.00 0.00 0.00 0.00 0.00 0.01 0.01 0.02 0.02 0.03 0.05 0.07 0.07 0.07 0.07 0.06 0.05 0.05 0.06 0.09 0.12 0.14 0.13 0.16 0.18 0.17 0.12 0.06 0.02 0.01 0.01 0.01 0.01 0.02 0.02 0.01 0.00 0.00 0.00 0.01 0.02 0.02
0.00 0.00 0.00 0.00 0.00 0.00 0.00 0.01 0.01 0.02 0.02 0.03 0.05 0.06 0.07 0.06 0.04 0.03 0.03 0.05 0.05 0.06 0.10 0.12 0.15 0.17 0.17 0.17 0.14 0.09 0.04 0.01 0.01 0.02 0.02 0.03 0.03 0.01 0.01 0.01 0.01 0.01 0.01
0.00 0.00 0.00 0.00 0.00 0.00 0.00 0.00 0.00 0.01 0.02 0.02 0.03 0.04 0.05 0.04 0.03 0.03 0.02 0.03 0.04 0.05 0.05 0.07 0.11 0.12 0.14 0.16 0.16 0.16 0.12 0.04 0.01 0.02 0.02 0.03 0.04 0.04 0.02 0.01 0.01 0.01 0.01
0.00 0.00 0.00 0.00 0.00 0.00 0.00 0.00 0.00 0.00 0.00 0.01 0.02 0.03 0.05 0.04 0.04 0.05 0.04 0.03 0.03 0.03 0.04 0.03 0.04 0.07 0.09 0.12 0.15 0.22 0.19 0.12 0.04 0.02 0.02 0.03 0.04 0.04 0.05 0.03 0.03 0.03 0.03
0.00 0.00 0.00 0.00 0.00 0.00 0.00 0.00 0.00 0.00 0.00 0.01 0.01 0.02 0.03 0.04 0.04 0.04 0.04 0.04 0.03 0.02 0.02 0.02 0.02 0.03 0.06 0.08 0.12 0.17 0.16 0.16 0.11 0.04 0.03 0.02 0.03 0.03 0.04 0.05 0.05 0.05 0.05
0.00 0.00 0.00 0.00 0.01 0.01 0.01 0.00 0.01 0.00 0.00 0.01 0.01 0.01 0.01 0.01 0.02 0.03 0.03 0.03 0.03 0.02 0.01 0.01 0.02 0.03 0.04 0.06 0.10 0.13 0.14 0.17 0.15 0.10 0.05 0.03 0.03 0.02 0.02 0.03 0.05 0.05 0.06
0.00 0.00 0.00 0.00 0.00 0.00 0.00 0.01 0.01 0.00 0.01 0.01 0.01 0.01 0.01 0.01 0.02 0.02 0.03 0.04 0.04 0.03 0.02 0.01 0.01 0.02 0.04 0.05 0.06 0.08 0.11 0.17 0.18 0.14 0.08 0.04 0.03 0.03 0.02 0.02 0.02 0.03 0.02
0.00 0.00 0.00 0.00 0.00 0.00 0.00 0.00 0.00 0.00 0.01 0.01 0.02 0.02 0.01 0.02 0.03 0.02 0.03 0.04 0.05 0.04 0.02 0.01 0.01 0.02 0.03 0.04 0.06 0.07 0.08 0.12 0.15 0.15 0.12 0.07 0.04 0.03 0.02 0.02 0.01 0.01 0.01
0.00 0.00 0.00 0.00 0.00 0.00 0.00 0.00 0.01 0.01 0.01 0.01 0.02 0.02 0.03 0.03 0.02 0.03 0.03 0.04 0.05 0.07 0.05 0.03 0.02 0.03 0.03 0.03 0.06 0.08 0.08 0.08 0.11 0.15 0.15 0.12 0.08 0.05 0.04 0.03 0.03 0.01 0.01
0.00 0.00 0.00 0.00 0.00 0.00 0.00 0.00 0.00 0.00 0.01 0.01 0.02 0.02 0.03 0.02 0.02 0.02 0.02 0.02 0.03 0.05 0.05 0.05 0.03 0.03 0.03 0.05 0.06 0.07 0.10 0.11 0.10 0.13 0.15 0.13 0.10 0.08 0.07 0.06 0.05 0.04 0.02
0.00 0.00 0.00 0.00 0.00 0.00 0.00 0.00 0.00 0.00 0.00 0.01 0.02 0.05 0.06 0.04 0.03 0.03 0.02 0.02 0.03 0.03 0.04 0.04 0.04 0.05 0.05 0.06 0.07 0.05 0.05 0.08 0.10 0.11 0.13 0.13 0.12 0.12 0.10 0.08 0.07 0.06 0.04
0.00 0.00 0.00 0.00 0.00 0.00 0.00 0.00 0.00 0.01 0.01 0.01 0.03 0.05 0.04 0.03 0.03 0.03 0.02 0.02 0.02 0.03 0.04 0.04 0.05 0.05 0.05 0.05 0.04 0.05 0.05 0.07 0.09 0.11 0.13 0.14 0.14 0.13 0.11 0.10 0.08 0.06 0.05
0.00 0.00 0.00 0.00 0.00 0.00 0.00 0.01 0.01 0.01 0.01 0.02 0.03 0.04 0.04 0.03 0.04 0.04 0.03 0.03 0.02 0.02 0.03 0.03 0.03 0.04 0.04 0.05 0.06 0.08 0.08 0.08 0.06 0.07 0.08 0.10 0.13 0.13 0.11 0.09 0.09 0.09 0.07
0.00 0.00 0.00 0.00 0.00 0.00 0.00 0.00 0.01 0.00 0.01 0.02 0.03 0.03 0.02 0.02 0.02 0.02 0.02 0.03 0.03 0.02 0.02 0.02 0.02 0.03 0.04 0.05 0.07 0.07 0.09 0.09 0.07 0.09 0.11 0.09 0.10 0.12 0.14 0.14 0.17 0.17 0.15
0.00 0.00 0.00 0.00 0.00 0.00 0.00 0.00 0.00 0.00 0.00 0.01 0.02 0.02 0.02 0.02 0.01 0.01 0.01 0.02 0.03 0.03 0.03 0.03 0.02 0.03 0.04 0.06 0.07 0.06 0.08 0.10 0.10 0.13 0.15 0.13 0.11 0.12 0.14 0.17 0.21 0.21 0.20
0.00 0.00 0.00 0.00 0.00 0.00 0.00 0.00 0.00 0.00 0.00 0.00 0.01 0.01 0.01 0.01 0.01 0.01 0.01 0.01 0.02 0.03 0.04 0.03 0.03 0.04 0.04 0.05 0.07 0.08 0.07 0.08 0.08 0.09 0.13 0.14 0.12 0.13 0.14 0.16 0.20 0.25 0.26
0.00 0.00 0.00 0.00 0.00 0.00 0.00 0.00 0.00 0.00 0.00 0.00 0.00 0.00 0.00 0.01 0.02 0.01 0.02 0.02 0.02 0.03 0.02 0.02 0.03 0.04 0.04 0.05 0.06 0.07 0.08 0.08 0.07 0.08 0.10 0.11 0.12 0.16 0.18 0.19 0.19 0.22 0.26
MSLP
1013.51 1013.28 1013.01 1012.74 1012.51 1012.36 1012.31 1012.37 1012.52 1012.72 1012.94 1013.12 1013.26 1013.32 1013.31 1013.25 1013.16 1013.07 1013.01 1013.00 1013.03 1013.12 1013.26 1013.44 1013.63 1013.84 1014.04 1014.22 1014.38 1014.53 1014.66 1014.78 1014.91 1015.06 1015.24 1015.46 1015.69 1015.95 1016.19 1016.42 1016.61 1016.75 1016.86
1013.51 1013.27 1013.00 1012.72 1012.48 1012.32 1012.25 1012.28 1012.40 1012.59 1012.80 1012.99 1013.13 1013.21 1013.22 1013.16 1013.08 1012.98 1012.91 1012.87 1012.90 1012.98 1013.13 1013.31 1013.53 1013.75 1013.97 1014.17 1014.34 1014.49 1014.62 1014.76 1014.91 1015.09 1015.30 1015.55 1015.82 1016.11 1016.38 1016.62 1016.81 1016.96 1017.07
1013.47 1013.26 1013.01 1012.77 1012.55 1012.39 1012.31 1012.33 1012.42 1012.57 1012.75 1012.92 1013.05 1013.12 1013.13 1013.08 1012.99 1012.88 1012.79 1012.74 1012.74 1012.81 1012.94 1013.12 1013.35 1013.58 1013.81 1014.03 1014.22 1014.38 1014.54 1014.70 1014.87 1015.08 1015.33 1015.61 1015.92 1016.22 1016.51 1016.77 1016.97 1017.13 1017.25
1013.43 1013.26 1013.07 1012.87 1012.70 1012.57 1012.50 1012.49 1012.55 1012.65 1012.78 1012.90 1013.00 1013.05 1013.04 1012.98 1012.88 1012.76 1012.65 1012.58 1012.55 1012.59 1012.70 1012.88 1013.09 1013.33 1013.57 1013.80 1014.01 1014.20 1014.39 1014.58 1014.79 1015.03 1015.31 1015.62 1015.94 1016.27 1016.57 1016.83 1017.05 1017.22 1017.35
1013.42 1013.30 1013.17 1013.04 1012.93 1012.84 1012.78 1012.75 1012.76 1012.80 1012.86 1012.92 1012.96 1012.97 1012.94 1012.87 1012.77 1012.64 1012.51 1012.42 1012.37 1012.38 1012.46 1012.60 1012.79 1013.02 1013.26 1013.51 1013.74 1013.96 1014.18 1014.40 1014.64 1014.92 1015.22 1015.55 1015.89 1016.22 1016.53 1016.80 1017.02 1017.21 1017.36
1013.46 1013.37 1013.30 1013.25 1013.19 1013.14 1013.08 1013.03 1012.99 1012.97 1012.95 1012.94 1012.93 1012.91 1012.86 1012.78 1012.67 1012.54 1012.41 1012.29 1012.22 1012.19 1012.23 1012.34 1012.50 1012.70 1012.94 1013.18 1013.43 1013.67 1013.92 1014.18 1014.46 1014.75 1015.08 1015.42 1015.76 1016.09 1016.40 1016.67 1016.90 1017.09 1017.27
1013.56 1013.49 1013.46 1013.46 1013.45 1013.42 1013.37 1013.30 1013.22 1013.13 1013.05 1012.98 1012.91 1012.86 1012.79 1012.71 1012.62 1012.50 1012.37 1012.24 1012.14 1012.08 1012.08 1012.13 1012.25 1012.42 1012.62 1012.86 1013.11 1013.37 1013.64 1013.92 1014.22 1014.54 1014.88 1015.22 1015.56 1015.89 1016.19 1016.45 1016.69 1016.90 1017.10
1013.69 1013.63 1013.62 1013.64 1013.65 1013.65 1013.60 1013.51 1013.39 1013.25 1013.12 1013.00 1012.91 1012.84 1012.78 1012.71 1012.62 1012.52 1012.40 1012.27 1012.15 1012.05 1012.00 1012.00 1012.06 1012.18 1012.34 1012.55 1012.79 1013.05 1013.34 1013.64 1013.96 1014.29 1014.64 1014.98 1015.32 1015.63 1015.93 1016.19 1016.43 1016.65 1016.87
1013.86 1013.77 1013.75 1013.77 1013.79 1013.79 1013.74 1013.63 1013.49 1013.33 1013.17 1013.03 1012.93 1012.85 1012.80 1012.75 1012.70 1012.61 1012.50 1012.36 1012.22 1012.08 1011.98 1011.91 1011.91 1011.97 1012.08 1012.25 1012.46 1012.71 1013.00 1013.31 1013.64 1013.98 1014.34 1014.69 1015.03 1015.34 1015.63 1015.90 1016.14 1016.38 1016.62
1014.01 1013.89 1013.85 1013.85 1013.86 1013.85 1013.79 1013.68 1013.53 1013.36 1013.19 1013.06 1012.95 1012.89 1012.85 1012.82 1012.78 1012.71 1012.60 1012.46 1012.29 1012.11 1011.96 1011.83 1011.76 1011.75 1011.80 1011.92 1012.10 1012.32 1012.60 1012.91 1013.25 1013.61 1013.97 1014.34 1014.68 1015.01 1015.31 1015.59 1015.85 1016.10 1016.36
1014.14 1013.98 1013.90 1013.88 1013.86 1013.84 1013.77 1013.66 1013.52 1013.35 1013.19 1013.06 1012.97 1012.91 1012.88 1012.86 1012.83 1012.76 1012.65 1012.49 1012.29 1012.08 1011.87 1011.69 1011.56 1011.48 1011.47 1011.54 1011.67 1011.86 1012.12 1012.42 1012.76 1013.14 1013.52 1013.90 1014.27 1014.62 1014.95 1015.25 1015.53 1015.81 1016.09
1014.22 1014.04 1013.93 1013.86 1013.83 1013.78 1013.71 1013.60 1013.46 1013.31 1013.16 1013.03 1012.94 1012.88 1012.85 1012.82 1012.78 1012.70 1012.57 1012.39 1012.18 1011.94 1011.69 1011.47 1011.28 1011.15 1011.09 1011.10 1011.18 1011.34 1011.56 1011.85 1012.19 1012.57 1012.97 1013.38 1013.78 1014.17 1014.53 1014.86 1015.18 1015.49 1015.79
1014.25 1014.05 1013.92 1013.83 1013.77 1013.71 1013.63 1013.52 1013.38 1013.23 1013.09 1012.96 1012.86 1012.78 1012.72 1012.67 1012.60 1012.49 1012.34 1012.15 1011.92 1011.66 1011.40 1011.15 1010.94 1010.77 1010.66 1010.62 1010.65 1010.77 1010.95 1011.22 1011.54 1011.92 1012.34 1012.77 1013.21 1013.63 1014.03 1014.41 1014.77 1015.11 1015.44
1014.22 1014.02 1013.88 1013.78 1013.70 1013.62 1013.53 1013.42 1013.28 1013.13 1012.98 1012.83 1012.70 1012.59 1012.49 1012.40 1012.29 1012.15 1011.99 1011.78 1011.55 1011.30 1011.05 1010.80 1010.57 1010.38 1010.24 1010.16 1010.15 1010.21 1010.35 1010.58 1010.88 1011.24 1011.66 1012.11 1012.57 1013.03 1013.47 1013.89 1014.29 1014.66 1015.03
1014.14 1013.96 1013.82 1013.71 1013.62 1013.53 1013.43 1013.31 1013.16 1013.00 1012.82 1012.65 1012.48 1012.33 1012.18 1012.04 1011.89 1011.73 1011.55 1011.36 1011.14 1010.92 1010.69 1010.46 1010.25 1010.06 1009.90 1009.79 1009.73 1009.74 1009.83 1010.00 1010.26 1010.59 1010.99 1011.44 1011.91 1012.39 1012.86 1013.31 1013.74 1014.16 1014.56
1014.01 1013.85 1013.72 1013.62 1013.52 1013.43 1013.32 1013.18 1013.02 1012.84 1012.64 1012.43 1012.22 1012.02 1011.83 1011.65 1011.47 1011.30 1011.12 1010.94 1010.76 1010.58 1010.40 1010.21 1010.02 1009.84 1009.68 1009.54 1009.44 1009.39 1009.42 1009.53 1009.73 1010.02 1010.39 1010.81 1011.27 1011.76 1012.24 1012.71 1013.17 1013.61 1014.04
1013.84 1013.71 1013.60 1013.50 1013.41 1013.31 1013.18 1013.04 1012.86 1012.65 1012.43 1012.19 1011.95 1011.72 1011.49 1011.28 1011.09 1010.91 1010.75 1010.61 1010.47 1010.34 1010.20 1010.06 1009.90 1009.74 1009.57 1009.41 1009.27 1009.18 1009.14 1009.19 1009.33 1009.57 1009.89 1010.27 1010.71 1011.18 1011.65 1012.12 1012.58 1013.04 1013.48
1013.65 1013.54 1013.45 1013.36 1013.26 1013.16 1013.02 1012.86 1012.67 1012.45 1012.21 1011.95 1011.69 1011.44 1011.20 1010.98 1010.78 1010.62 1010.48 1010.36 1010.26 1010.17 1010.08 1009.97 1009.84 1009.69 1009.52 1009.34 1009.17 1009.03 1008.95 1008.94 1009.03 1009.21 1009.48 1009.83 1010.23 1010.66 1011.12 1011.57 1012.02 1012.47 1012.93
1013.43 1013.35 1013.27 1013.19 1013.09 1012.98 1012.83 1012.66 1012.46 1012.23 1011.98 1011.72 1011.46 1011.20 1010.96 1010.74 1010.55 1010.40 1010.27 1010.17 1010.09 1010.02 1009.95 1009.86 1009.74 1009.59 1009.41 1009.22 1009.03 1008.86 1008.75 1008.71 1008.76 1008.91 1009.14 1009.45 1009.82 1010.22 1010.64 1011.07 1011.50 1011.93 1012.37
1013.21 1013.14 1013.06 1012.98 1012.88 1012.76 1012.61 1012.43 1012.23 1012.00 1011.75 1011.50 1011.25 1011.00 1010.77 1010.56 1010.37 1010.22 1010.09 1009.98 1009.89 1009.81 1009.73 1009.62 1009.49 1009.33 1009.14 1008.94 1008.74 1008.57 1008.45 1008.41 1008.45 1008.58 1008.80 1009.09 1009.43 1009.81 1010.20 1010.60 1011.00 1011.40 1011.82
1012.96 1012.90 1012.84 1012.75 1012.65 1012.52 1012.36 1012.18 1011.97 1011.75 1011.52 1011.28 1011.04 1010.81 1010.59 1010.38 1010.19 1010.02 1009.86 1009.72 1009.58 1009.46 1009.32 1009.18 1009.01 1008.82 1008.62 1008.42 1008.23 1008.08 1007.98 1007.96 1008.03 1008.18 1008.40 1008.70 1009.03 1009.39 1009.76 1010.13 1010.50 1010.87 1011.27
1012.70 1012.65 1012.58 1012.49 1012.38 1012.24 1012.08 1011.89 1011.69 1011.48 1011.26 1011.05 1010.83 1010.62 1010.40 1010.19 1009.98 1009.76 1009.55 1009.34 1009.14 1008.93 1008.72 1008.50 1008.29 1008.06 1007.85 1007.65 1007.49 1007.37 1007.32 1007.35 1007.47 1007.66 1007.92 1008.23 1008.57 1008.93 1009.28 1009.63 1009.98 1010.32 1010.68
1012.40 1012.35 1012.28 1012.19 1012.07 1011.92 1011.75 1011.57 1011.38 1011.18 1010.99 1010.80 1010.60 1010.40 1010.19 1009.96 1009.71 1009.45 1009.17 1008.87 1008.57 1008.26 1007.96 1007.67 1007.39 1007.13 1006.90 1006.71 1006.58 1006.52 1006.53 1006.62 1006.80 1007.05 1007.35 1007.69 1008.05 1008.41 1008.75 1009.08 1009.40 1009.72 1010.06
1012.03 1011.98 1011.92 1011.82 1011.69 1011.55 1011.38 1011.21 1011.03 1010.86 1010.69 1010.52 1010.35 1010.17 1009.95 1009.71 1009.42 1009.10 1008.74 1008.36 1007.96 1007.55 1007.16 1006.79 1006.45 1006.16 1005.92 1005.76 1005.66 1005.65 1005.72 1005.87 1006.11 1006.40 1006.74 1007.10 1007.47 1007.83 1008.16 1008.48 1008.78 1009.07 1009.39
1011.59 1011.54 1011.47 1011.37 1011.24 1011.10 1010.94 1010.78 1010.63 1010.49 1010.36 1010.23 1010.09 1009.92 1009.72 1009.46 1009.15 1008.78 1008.36 1007.90 1007.41 1006.93 1006.46 1006.03 1005.65 1005.34 1005.10 1004.95 1004.89 1004.92 1005.03 1005.23 1005.50 1005.81 1006.16 1006.53 1006.88 1007.22 1007.54 1007.82 1008.10 1008.37 1008.67
1011.06 1011.00 1010.92 1010.82 1010.69 1010.56 1010.42 1010.30 1010.18 1010.09 1010.00 1009.92 1009.82 1009.68 1009.50 1009.25 1008.92 1008.53 1008.07 1007.56 1007.02 1006.49 1005.98 1005.51 1005.11 1004.79 1004.57 1004.43 1004.39 1004.45 1004.58 1004.79 1005.06 1005.36 1005.69 1006.02 1006.33 1006.63 1006.90 1007.15 1007.40 1007.65 1007.93
Thickness
5705 5708 5711 5715 5719 5722 5725 5728 5730 5733 5736 5739 5741 5744 5746 5748 5750 5752 5754 5755 5755 5755 5755 5754 5754 5753 5753 5754 5754 5755 5754 5754 5754 5754 5754 5753 5753 5752 5752 5751 5751 5750 5749
5699 5702 5705 5709 5712 5717 5720 5723 5725 5728 5732 5735 5737 5740 5743 5746 5749 5751 5752 5754 5755 5755 5754 5754 5754 5753 5753 5753 5754 5754 5754 5754 5754 5753 5753 5753 5752 5752 5751 5750 5749 5749 5748
5694 5697 5699 5703 5707 5711 5715 5717 5720 5723 5726 5730 5732 5736 5739 5742 5745 5748 5750 5752 5753 5754 5754 5754 5753 5753 5753 5753 5753 5753 5753 5753 5753 5753 5752 5752 5751 5751 5750 5749 5748 5748 5747
5690 5692 5694 5697 5702 5706 5709 5711 5714 5717 5720 5724 5727 5730 5734 5737 5740 5744 5746 5748 5750 5751 5752 5752 5752 5752 5752 5752 5753 5753 5753 5753 5752 5752 5752 5751 5751 5750 5749 5749 5748 5747 5746
5685 5688 5690 5693 5696 5700 5702 5706 5709 5712 5714 5717 5722 5726 5729 5731 5735 5739 5741 5744 5746 5748 5750 5751 5751 5751 5751 5752 5752 5752 5752 5752 5752 5752 5751 5751 5750 5749 5749 5748 5747 5746 5745
5681 5684 5685 5688 5691 5694 5696 5699 5702 5706 5709 5712 5716 5720 5723 5726 5730 5733 5736 5739 5742 5744 5747 5748 5749 5750 5750 5751 5751 5752 5752 5752 5751 5751 5751 5750 5749 5749 5748 5747 5746 5745 5744
5677 5679 5681 5683 5686 5688 5690 5693 5696 5699 5702 5706 5707 5710 5715 5721 5725 5729 5732 5735 5737 5741 5743 5745 5747 5748 5749 5750 5750 5750 5751 5751 5751 5751 5750 5749 5749 5748 5747 5747 5746 5745 5744
5674 5676 5676 5678 5680 5682 5685 5688 5690 5692 5695 5699 5699 5699 5701 5708 5717 5725 5727 5730 5733 5737 5740 5742 5744 5746 5747 5748 5749 5749 5750 5750 5750 5750 5749 5749 5748 5747 5747 5746 5745 5744 5743
5671 5672 5673 5674 5676 5678 5679 5682 5685 5686 5687 5691 5694 5694 5693 5695 5704 5714 5720 5725 5729 5732 5735 5739 5741 5743 5744 5746 5747 5748 5748 5748 5749 5749 5748 5748 5747 5746 5746 5745 5744 5743 5742
5670 5670 5671 5671 5672 5673 5675 5677 5680 5681 5682 5683 5687 5690 5693 5695 5695 5700 5710 5717 5722 5726 5729 5734 5737 5739 5741 5743 5745 5746 5747 5747 5747 5747 5747 5747 5746 5745 5744 5744 5743 5742 5741
5668 5668 5669 5669 5669 5670 5671 5673 5675 5676 5677 5678 5680 5683 5686 5689 5692 5693 5696 5704 5712 5719 5724 5728 5732 5735 5738 5740 5742 5744 5745 5745 5745 5745 5745 5745 5745 5744 5743 5743 5742 5741 5739
5666 5667 5667 5667 5667 5667 5668 5669 5670 5671 5673 5674 5675 5677 5679 5681 5683 5686 5689 5694 5700 5710 5717 5722 5726 5730 5734 5737 5739 5741 5742 5743 5743 5744 5744 5744 5743 5743 5742 5741 5740 5739 5738
5664 5664 5665 5665 5664 5665 5665 5666 5666 5667 5668 5669 5670 5672 5674 5677 5680 5682 5683 5686 5691 5699 5708 5715 5721 5725 5729 5732 5735 5737 5739 5740 5741 5742 5742 5742 5741 5741 5741 5740 5739 5738 5737
5664 5664 5664 5664 5663 5663 5663 5663 5662 5663 5664 5664 5666 5667 5669 5671 5674 5677 5679 5680 5682 5688 5696 5705 5713 5718 5723 5727 5730 5732 5735 5737 5737 5738 5739 5739 5739 5738 5738 5738 5737 5736 5735
5666 5665 5664 5662 5662 5661 5660 5659 5658 5658 5658 5659 5660 5662 5663 5666 5669 5672 5674 5676 5676 5678 5685 5695 5702 5711 5716 5720 5724 5727 5730 5733 5734 5734 5735 5735 5735 5735 5735 5735 5734 5733 5732
5666 5664 5662 5661 5659 5658 5657 5655 5654 5653 5653 5654 5655 5656 5657 5660 5663 5665 5668 5671 5673 5674 5678 5687 5693 5701 5707 5712 5717 5721 5724 5727 5729 5730 5731 5731 5731 5731 5731 5731 5731 5730 5729
5666 5664 5661 5659 5657 5655 5653 5651 5649 5648 5648 5648 5648 5649 5651 5654 5656 5658 5661 5664 5667 5669 5672 5679 5685 5692 5697 5703 5708 5713 5717 5720 5723 5725 5726 5727 5727 5728 5728 5727 5727 5726 5726
5666 5663 5661 5658 5655 5653 5650 5647 5645 5644 5642 5641 5642 5643 5644 5648 5649 5652 5654 5657 5660 5663 5666 5670 5676 5682 5688 5694 5699 5703 5709 5714 5717 5720 5721 5722 5723 5723 5724 5723 5723 5722 5722
5666 5663 5660 5656 5654 5651 5648 5645 5643 5640 5639 5637 5637 5637 5638 5640 5642 5644 5647 5649 5652 5657 5660 5663 5667 5672 5678 5684 5688 5694 5699 5705 5709 5713 5715 5716 5717 5718 5719 5719 5719 5719 5718
5666 5662 5659 5656 5653 5650 5647 5644 5641 5639 5637 5636 5635 5635 5635 5636 5637 5639 5641 5643 5646 5648 5651 5654 5658 5662 5668 5674 5678 5683 5688 5694 5700 5704 5707 5710 5712 5713 5714 5715 5715 5715 5714
5667 5663 5659 5656 5653 5651 5648 5644 5641 5639 5636 5634 5634 5634 5633 5635 5637 5637 5638 5639 5640 5641 5643 5646 5649 5653 5658 5663 5669 5675 5678 5684 5690 5695 5698 5702 5704 5705 5707 5709 5710 5710 5709
5666 5663 5660 5656 5653 5652 5650 5647 5644 5639 5636 5634 5632 5633 5633 5634 5635 5636 5637 5638 5637 5636 5637 5640 5643 5646 5651 5656 5661 5666 5670 5674 5679 5688 5689 5693 5697 5699 5703 5704 5706 5705 5704
5666 5663 5660 5657 5654 5652 5651 5649 5646 5641 5637 5635 5633 5632 5633 5634 5633 5633 5634 5635 5635 5635 5637 5637 5639 5642 5646 5651 5655 5658 5662 5666 5672 5679 5680 5684 5689 5693 5697 5699 5700 5700 5700
5666 5664 5661 5659 5656 5654 5653 5651 5648 5643 5639 5637 5634 5633 5632 5631 5632 5632 5632 5631 5631 5631 5633 5635 5637 5640 5643 5647 5650 5654 5657 5660 5666 5671 5674 5675 5681 5685 5690 5692 5694 5695 5695
5667 5665 5663 5660 5657 5656 5655 5652 5649 5643 5640 5638 5636 5635 5633 5632 5632 5632 5630 5628 5628 5629 5631 5633 5635 5637 5641 5644 5646 5647 5650 5652 5657 5662 5666 5669 5674 5676 5680 5685 5688 5689 5690
5668 5666 5664 5662 5659 5657 5656 5654 5651 5644 5640 5638 5637 5636 5635 5633 5633 5632 5629 5626 5625 5626 5628 5630 5631 5634 5637 5640 5642 5644 5645 5647 5651 5654 5660 5662 5665 5666 5669 5676 5680 5682 5682